FW3232 Weather Reports


Display with metric or nautical units.
time (UTC)temp
F
wind
direction
speed
MPH
gust
MPH
rain 1hr
in
rain 24hr
in
rain mn
in
humidity
%
barometer
mb
20260503225412 80 351 1.0 10.0 0.00 0.00 0.00 35 1012.7
20260503224913 80 311 2.0 8.0 0.00 0.00 0.00 34 1012.8
20260503224411 80 342 2.0 10.0 0.00 0.00 0.00 34 1012.8
20260503223911 80 341 4.0 11.0 0.00 0.00 0.00 33 1012.7
20260503223411 80 305 4.0 9.0 0.00 0.00 0.00 34 1012.8
20260503222912 81 316 6.0 9.0 0.00 0.00 0.00 33 1012.8
20260503222411 81 349 4.0 9.0 0.00 0.00 0.00 33 1012.8
20260503221911 81 324 4.0 9.0 0.00 0.00 0.00 32 1012.8
20260503221411 81 324 3.0 11.0 0.00 0.00 0.00 33 1012.9
20260503220911 81 282 5.0 13.0 0.00 0.00 0.00 31 1012.9
20260503220411 81 312 5.0 10.0 0.00 0.00 0.00 32 1013.1
20260503215912 81 306 5.0 11.0 0.00 0.00 0.00 31 1013.2
20260503215411 82 315 8.0 11.0 0.00 0.00 0.00 33 1013.2
20260503214911 82 222 4.0 13.0 0.00 0.00 0.00 31 1013.1
20260503214412 82 330 7.0 13.0 0.00 0.00 0.00 33 1013.3
20260503213911 82 330 4.0 8.0 0.00 0.00 0.00 33 1013.2
20260503213412 81 329 2.0 9.0 0.00 0.00 0.00 36 1013.3
20260503212911 80 311 4.0 9.0 0.00 0.00 0.00 37 1013.4
20260503212411 80 131 4.0 8.0 0.00 0.00 0.00 38 1013.4
20260503211912 81 186 3.0 10.0 0.00 0.00 0.00 38 1013.5
20260503211412 82 175 3.0 7.0 0.00 0.00 0.00 36 1013.6
20260503210911 82 128 4.0 8.0 0.00 0.00 0.00 36 1013.7
20260503210411 82 157 2.0 7.0 0.00 0.00 0.00 37 1013.8
20260503205911 82 44 3.0 7.0 0.00 0.00 0.00 36 1013.8
20260503205411 82 170 3.0 9.0 0.00 0.00 0.00 35 1014.0
20260503204912 82 330 4.0 13.0 0.00 0.00 0.00 32 1014.1
20260503204411 83 353 3.0 9.0 0.00 0.00 0.00 32 1014.1
20260503203911 83 236 3.0 7.0 0.00 0.00 0.00 35 1014.1
20260503203411 83 98 2.0 8.0 0.00 0.00 0.00 34 1014.2
20260503202911 82 310 3.0 9.0 0.00 0.00 0.00 35 1014.3
20260503202411 83 300 3.0 7.0 0.00 0.00 0.00 32 1014.3
20260503201911 82 0 4.0 10.0 0.00 0.00 0.00 37 1014.3
20260503201412 82 172 6.0 10.0 0.00 0.00 0.00 37 1014.5
20260503200911 82 120 4.0 8.0 0.00 0.00 0.00 36 1014.6
20260503200411 82 291 4.0 10.0 0.00 0.00 0.00 35 1014.6
20260503195911 82 332 6.0 10.0 0.00 0.00 0.00 33 1014.6
20260503195413 81 291 2.0 8.0 0.00 0.00 0.00 35 1014.8
20260503194911 82 147 4.0 9.0 0.00 0.00 0.00 36 1014.8
20260503194411 81 244 4.0 11.0 0.00 0.00 0.00 34 1015.1
20260503193911 81 299 6.0 10.0 0.00 0.00 0.00 34 1015.1
20260503193411 81 294 8.0 9.0 0.00 0.00 0.00 36 1015.1
20260503192912 81 144 1.0 8.0 0.00 0.00 0.00 36 1015.2
20260503192413 81 308 5.0 10.0 0.00 0.00 0.00 35 1015.3
20260503191912 82 103 3.0 9.0 0.00 0.00 0.00 34 1015.3
20260503191413 81 280 4.0 9.0 0.00 0.00 0.00 35 1015.3
20260503190911 81 158 5.0 8.0 0.00 0.00 0.00 38 1015.4
20260503190412 81 309 5.0 9.0 0.00 0.00 0.00 37 1015.6
20260503185913 82 288 4.0 7.0 0.00 0.00 0.00 36 1015.5
20260503185411 82 319 2.0 9.0 0.00 0.00 0.00 36 1015.6
20260503184911 81 15 2.0 8.0 0.00 0.00 0.00 37 1015.6
20260503184411 80 96 3.0 12.0 0.00 0.00 0.00 38 1015.7
20260503183911 80 325 7.0 12.0 0.00 0.00 0.00 38 1015.8
20260503183411 80 253 4.0 12.0 0.00 0.00 0.00 37 1015.9
20260503182912 79 141 4.0 7.0 0.00 0.00 0.00 38 1016.0
20260503182411 79 168 4.0 9.0 0.00 0.00 0.00 38 1016.0
20260503181912 78 125 3.0 11.0 0.00 0.00 0.00 40 1016.1
20260503181411 78 195 4.0 9.0 0.00 0.00 0.00 41 1016.3
20260503180912 79 263 4.0 8.0 0.00 0.00 0.00 39 1016.4
20260503180411 78 199 1.0 8.0 0.00 0.00 0.00 39 1016.4
20260503175913 78 258 4.0 14.0 0.00 0.00 0.00 39 1016.6
20260503175412 77 308 6.0 14.0 0.00 0.00 0.00 41 1016.6
20260503174911 78 234 5.0 8.0 0.00 0.00 0.00 39 1016.6
20260503174413 77 290 3.0 10.0 0.00 0.00 0.00 40 1016.7
20260503173912 77 268 4.0 10.0 0.00 0.00 0.00 40 1016.8
20260503173412 77 231 3.0 10.0 0.00 0.00 0.00 42 1016.9
20260503172911 77 332 4.0 10.0 0.00 0.00 0.00 39 1017.0
20260503172413 77 120 4.0 8.0 0.00 0.00 0.00 40 1017.0
20260503171912 77 225 2.0 8.0 0.00 0.00 0.00 39 1017.1
20260503171411 76 46 4.0 8.0 0.00 0.00 0.00 40 1017.1
20260503170911 76 168 5.0 9.0 0.00 0.00 0.00 40 1017.1
20260503170412 74 128 4.0 9.0 0.00 0.00 0.00 42 1017.1
20260503150912 65 249 3.0 7.0 0.00 0.00 0.00 49 1018.5
20260503150413 64 192 3.0 9.0 0.00 0.00 0.00 52 1018.6
20260503131412 48 154 3.0 5.0 0.00 0.00 0.00 83 1019.3
20260503130911 47 230 0.0 3.0 0.00 0.00 0.00 85 1019.4
20260503130411 46 191 2.0 4.0 0.00 0.00 0.00 86 1019.4
20260503110412 37 356 0.0 2.0 0.00 0.00 0.00 100 1019.1
20260503090411 38 352 2.0 3.0 0.00 0.00 0.00 98 1019.5
20260503081411 39 356 0.0 2.0 0.00 0.00 0.00 97 1019.7
20260503080912 39 357 0.0 2.0 0.00 0.00 0.00 97 1019.7
20260503080412 39 356 1.0 2.0 0.00 0.00 0.00 97 1019.7
20260503072913 40 331 0.0 1.0 0.00 0.00 0.00 95 1019.9
20260503072411 40 345 0.0 2.0 0.00 0.00 0.00 95 1020.0
20260503071912 40 354 1.0 2.0 0.00 0.00 0.00 95 1019.9
20260503071411 40 350 1.0 2.0 0.00 0.00 0.00 95 1020.0
20260503070911 40 357 1.0 2.0 0.00 0.00 0.00 94 1020.0
20260503070411 40 327 0.0 1.0 0.00 0.00 0.00 94 1020.1
20260503054912 41 356 1.0 2.0 0.00 0.00 0.00 87 1020.7
20260503054411 41 351 2.0 2.0 0.00 0.00 0.00 86 1020.7
20260503053911 42 353 2.0 2.0 0.00 0.00 0.00 86 1020.6
20260503053411 42 351 1.0 2.0 0.00 0.00 0.00 85 1020.6
20260503052911 42 0 0.0 2.0 0.00 0.00 0.00 84 1020.6
20260503052411 42 349 2.0 2.0 0.00 0.00 0.00 84 1020.6
20260503051912 42 351 2.0 2.0 0.00 0.00 0.00 84 1020.5
20260503051411 42 357 1.0 2.0 0.00 0.00 0.00 83 1020.6
20260503050911 43 0 0.0 2.0 0.00 0.00 0.00 83 1020.6
20260503050414 43 345 0.0 2.0 0.00 0.00 0.00 82 1020.5
20260503045911 43 0 0.0 2.0 0.00 0.00 0.00 81 1020.5
20260503045413 43 357 2.0 2.0 0.00 0.00 0.00 81 1020.5
20260503044911 44 354 0.0 2.0 0.00 0.00 0.00 81 1020.5
20260503044411 44 357 0.0 2.0 0.00 0.00 0.00 81 1020.5
20260503043913 44 351 1.0 2.0 0.00 0.00 0.00 81 1020.3
20260503043414 44 354 1.0 2.0 0.00 0.00 0.00 80 1020.3
20260503042914 44 346 2.0 3.0 0.00 0.00 0.00 81 1020.3
20260503042411 44 350 2.0 2.0 0.00 0.00 0.00 81 1020.3
20260503041911 44 349 2.0 2.0 0.00 0.00 0.00 80 1020.3
20260503041411 45 354 1.0 2.0 0.00 0.00 0.00 78 1020.3
20260503040911 45 350 0.0 2.0 0.00 0.00 0.00 78 1020.5
20260503040411 45 0 0.0 2.0 0.00 0.00 0.00 79 1020.5
20260503035911 46 0 0.0 2.0 0.00 0.00 0.00 77 1020.3
20260503035411 46 350 1.0 2.0 0.00 0.00 0.00 76 1020.3
20260503034911 46 347 2.0 2.0 0.00 0.00 0.00 75 1020.3
20260503034411 46 339 1.0 2.0 0.00 0.00 0.00 74 1020.3
20260503033913 46 350 1.0 2.0 0.00 0.00 0.00 74 1020.3
20260503033411 46 349 1.0 2.0 0.00 0.00 0.00 74 1020.3
20260503032912 46 342 2.0 2.0 0.00 0.00 0.00 74 1020.2
20260503032411 46 350 2.0 2.0 0.00 0.00 0.00 74 1020.2
20260503031913 46 347 1.0 2.0 0.00 0.00 0.00 74 1020.1
20260503031412 46 347 2.0 2.0 0.00 0.00 0.00 73 1020.1
20260503030911 46 347 0.0 2.0 0.00 0.00 0.00 73 1020.1
20260503030411 46 351 2.0 2.0 0.00 0.00 0.00 73 1020.1
20260503025912 46 351 2.0 2.0 0.00 0.00 0.00 72 1020.1
20260503025411 47 344 1.0 2.0 0.00 0.00 0.00 71 1020.1
20260503024911 47 347 2.0 2.0 0.00 0.00 0.00 70 1020.0
20260503024411 47 349 1.0 2.0 0.00 0.00 0.00 71 1020.0
20260503023913 47 343 1.0 2.0 0.00 0.00 0.00 70 1020.0
20260503023411 47 351 0.0 2.0 0.00 0.00 0.00 70 1020.0
20260503022911 47 352 1.0 2.0 0.00 0.00 0.00 69 1020.0
20260503022411 47 355 1.0 2.0 0.00 0.00 0.00 69 1019.9
20260503021913 47 343 1.0 2.0 0.00 0.00 0.00 68 1019.9
20260503021412 47 349 1.0 2.0 0.00 0.00 0.00 68 1019.9
20260503020913 47 345 2.0 2.0 0.00 0.00 0.00 68 1019.9
20260503020412 48 351 1.0 2.0 0.00 0.00 0.00 68 1019.8
20260503015911 48 350 2.0 2.0 0.00 0.00 0.00 66 1019.9
20260503015411 48 356 1.0 3.0 0.00 0.00 0.00 67 1019.8
20260503014911 49 348 1.0 2.0 0.00 0.00 0.00 67 1019.8
20260503014411 49 350 2.0 2.0 0.00 0.00 0.00 65 1019.8
20260503013911 50 345 1.0 2.0 0.00 0.00 0.00 65 1019.7
20260503013411 50 357 2.0 2.0 0.00 0.00 0.00 63 1019.7
20260503012911 51 356 2.0 2.0 0.00 0.00 0.00 62 1019.7
20260503012411 52 0 0.0 2.0 0.00 0.00 0.00 58 1019.7
20260503011911 52 352 1.0 2.0 0.00 0.00 0.00 60 1019.6
20260503011413 53 349 0.0 3.0 0.00 0.00 0.00 54 1019.6
20260503010911 53 349 2.0 3.0 0.00 0.00 0.00 58 1019.5
20260503010411 54 351 2.0 3.0 0.00 0.00 0.00 56 1019.5
20260503005910 55 349 2.0 3.0 0.00 0.00 0.00 54 1019.5
20260503005411 55 341 2.0 2.0 0.00 0.00 0.00 52 1019.4
20260503004912 56 347 2.0 3.0 0.00 0.00 0.00 52 1019.5
20260503004411 58 350 2.0 2.0 0.00 0.00 0.00 49 1019.5
20260503003911 59 349 2.0 2.0 0.00 0.00 0.00 45 1019.4
20260503003411 61 0 0.0 2.0 0.00 0.00 0.00 42 1019.4
20260503002912 62 326 2.0 6.0 0.00 0.00 0.00 39 1019.3
20260503002411 62 8 2.0 6.0 0.00 0.00 0.00 37 1019.2
20260503001912 63 359 2.0 4.0 0.00 0.00 0.00 36 1019.1
20260503001412 63 3 2.0 5.0 0.00 0.00 0.00 36 1019.2
20260503000911 63 5 1.0 4.0 0.00 0.00 0.00 36 1019.2
20260503000411 64 6 2.0 4.0 0.00 0.00 0.00 35 1019.2
20260502235911 64 351 3.0 5.0 0.00 0.00 0.00 35 1019.2
20260502235411 64 42 2.0 8.0 0.00 0.00 0.00 35 1019.2
20260502234911 64 39 3.0 5.0 0.00 0.00 0.00 35 1019.2
20260502234411 64 34 3.0 7.0 0.00 0.00 0.00 34 1019.2
20260502233912 65 49 3.0 6.0 0.00 0.00 0.00 34 1019.2
20260502233412 65 15 2.0 5.0 0.00 0.00 0.00 34 1019.2
20260502232912 65 346 1.0 5.0 0.00 0.00 0.00 34 1019.2
20260502232412 65 334 2.0 9.0 0.00 0.00 0.00 34 1019.2
20260502231912 65 349 5.0 9.0 0.00 0.00 0.00 34 1019.2
20260502231411 65 10 4.0 9.0 0.00 0.00 0.00 34 1019.2
20260502230915 66 85 2.0 7.0 0.00 0.00 0.00 34 1019.2
20260502230412 66 45 1.0 7.0 0.00 0.00 0.00 33 1019.3
20260502225911 66 45 3.0 7.0 0.00 0.00 0.00 33 1019.3